Faro, Portugal

11:29 AM WET on November 22, 2019 (GMT +0000)
Faro

Weather History for LPFR - September, 2019

Change the Weather History Date:

Thursday, September 5, 2019

  Actual Average Record
Temperature  
Mean Temperature 77 °F -  
Max Temperature 84 °F 76 °F 93 °F (2016)
Min Temperature 70 °F 62 °F 59 °F (2011)
Cooling Degree Days 12    
Growing Degree Days 27 (Base 50)    
Moisture  
Dew Point 66 °F    
Average Humidity 67    
Maximum Humidity 94    
Minimum Humidity 38    
Precipitation  
Precipitation 0.00 in 0.03 in - ()
Sea Level Pressure  
Sea Level Pressure 29.96 in    
Wind  
Wind Speed 4 mph ()    
Max Wind Speed 9 mph    
Max Gust Speed -    
Visibility 8.1 miles    
Events      
Averages and records for this station are not official NWS values.
T = Trace of Precipitation, MM = Missing Value Source: Averaged Metar Reports

Daily Weather History Graph

Daily Weather History Graph

Search for Another Location

Airport or City:

Astronomy

Sep. 05, 2019 Rise Set
Actual Time 7:05 AM WEST 7:55 PM WEST
Civil Twilight 6:39 AM WEST 8:21 PM WEST
Nautical Twilight 6:07 AM WEST 8:52 PM WEST
Astronomical Twilight 5:35 AM WEST 9:24 PM WEST
Moon 1:48 PM WEST (9/5) No Moon Set
Length of Visible Light 13h 42m
Length of Day
12h 49m
Waxing Crescent, 43% of the Moon is Illuminated
Sep 5
Waxing Crescent
Sep 6
First Quarter
Sep 14
Full
Sep 22
Last Quarter
Sep 28
New

Hourly Weather History & Observations

Time (WEST) Temp. Heat Index Dew Point Humidity Pressure Visibility Wind Dir Wind Speed Gust Speed Precip Events Conditions
12:00 AM 76 °F - 73 °F 88% 30.00 in - West 4.5 mph - -  
12:00 AM 75.2 °F - 73.4 °F 94% 29.98 in - West 5.8 mph - N/A   Clear
12:30 AM 75.2 °F - 71.6 °F 89% 29.98 in - West 3.5 mph - N/A   Clear
1:00 AM 76 °F - 70 °F 75% 29.99 in - NW 1.2 mph - -  
1:00 AM 75.2 °F - 69.8 °F 83% 29.98 in - WNW 4.6 mph - N/A   Clear
1:30 AM 75.2 °F - 69.8 °F 83% 29.98 in - Variable 1.2 mph - N/A   Clear
2:00 AM 76 °F - 66 °F 64% 29.98 in - WNW 6.7 mph - -  
2:30 AM 73.4 °F - 66.2 °F 78% 29.95 in - NNW 4.6 mph - N/A   Clear
3:00 AM 73 °F - 65 °F 68% 29.97 in - Calm Calm - -  
3:00 AM 73.4 °F - 66.2 °F 78% 29.95 in - NNE 3.5 mph - N/A   Clear
3:30 AM 73.4 °F - 64.4 °F 73% 29.95 in - North 3.5 mph - N/A   Clear
4:00 AM 76 °F - 59 °F 46% 29.96 in 12 mi North 2.2 mph - -   Clear
4:00 AM 71.6 °F - 62.6 °F 73% 29.95 in - North 3.5 mph - N/A   Clear
4:30 AM 75.2 °F - 59.0 °F 57% 29.95 in - NNE 3.5 mph - N/A   Clear
5:00 AM 73 °F - 57 °F 48% 29.96 in - NE 2.2 mph - -  
5:00 AM 73.4 °F - 59.0 °F 61% 29.95 in - NNE 5.8 mph - N/A   Clear
5:30 AM 75.2 °F - 55.4 °F 50% 29.92 in - NNE 6.9 mph - N/A   Clear
6:00 AM 76 °F - 55 °F 38% 29.96 in - ENE 2.2 mph - -  
6:00 AM 75.2 °F - 53.6 °F 47% 29.95 in - NNE 5.8 mph - N/A   Clear
6:30 AM 71.6 °F - 55.4 °F 57% 29.95 in - NE 4.6 mph - N/A   Clear
7:00 AM 74 °F - 61 °F 55% 29.97 in 12 mi East 4.5 mph - -   Scattered Clouds
7:00 AM 73.4 °F - 59.0 °F 61% 29.95 in - East 4.6 mph - N/A   Clear
7:30 AM 73.4 °F - 62.6 °F 69% 29.95 in - NE 4.6 mph - N/A   Clear
8:00 AM 74 °F - 64 °F 62% 29.98 in - NE 2.2 mph - -  
8:00 AM 73.4 °F - 62.6 °F 69% 29.95 in - NNE 4.6 mph - N/A   Clear
8:30 AM 75.2 °F - 62.6 °F 65% 29.95 in - NE 3.5 mph - N/A   Clear
9:00 AM 78 °F - 70 °F 69% 29.99 in - East 2.2 mph - -  
9:00 AM 78.8 °F - 68.0 °F 69% 29.95 in - Variable 2.3 mph - N/A   Clear
9:30 AM 78.8 °F - 69.8 °F 74% 29.98 in - ESE 3.5 mph - N/A   Clear
10:00 AM 80 °F - 69 °F 63% 30.00 in 12 mi ESE 4.5 mph - -   Clear
10:00 AM 78.8 °F - 69.8 °F 74% 29.98 in - ESE 5.8 mph - N/A   Clear
10:30 AM 80.6 °F 83.9 °F 69.8 °F 70% 29.98 in - East 5.8 mph - N/A   Clear
11:00 AM 80.6 °F 83.9 °F 69.8 °F 70% 29.98 in - ESE 6.9 mph - N/A   Clear
11:30 AM 82.4 °F 85.4 °F 68.0 °F 62% 29.98 in - ESE 6.9 mph - N/A   Clear
12:00 PM 83 °F - 63 °F 40% 30.00 in - SSE 6.7 mph - -  
12:00 PM 82.4 °F 83.4 °F 62.6 °F 51% 29.98 in - SSE 8.1 mph - N/A   Clear
12:30 PM 84.2 °F 84.4 °F 60.8 °F 45% 29.98 in - SSE 6.9 mph - N/A   Clear
1:00 PM 84 °F - 62 °F 38% 30.00 in 12 mi South 3.5 mph - -   Clear
1:00 PM 84.2 °F 84.4 °F 60.8 °F 45% 29.98 in - SSE 8.1 mph - N/A   Clear
1:30 PM 84.2 °F 84.4 °F 60.8 °F 45% 29.98 in 6.2 mi SSE 9.2 mph - N/A   Partly Cloudy
2:00 PM 84 °F - 63 °F 40% 29.99 in - South 8.9 mph - -  
2:30 PM 82.4 °F 83.4 °F 62.6 °F 51% 29.98 in 6.2 mi SSE 8.1 mph - N/A   Partly Cloudy
3:00 PM 82.4 °F 83.9 °F 64.4 °F 54% 29.95 in 6.2 mi SSE 8.1 mph - N/A   Partly Cloudy
3:30 PM 82.4 °F 84.6 °F 66.2 °F 58% 29.95 in 6.2 mi SSE 6.9 mph - N/A   Partly Cloudy
4:00 PM 81 °F - 69 °F 59% 29.97 in - SSE 8.9 mph - -  
4:00 PM 80.6 °F 83.2 °F 68.0 °F 65% 29.95 in 6.2 mi SSE 9.2 mph - N/A   Partly Cloudy
4:30 PM 80.6 °F 82.7 °F 66.2 °F 61% 29.95 in 6.2 mi SSE 9.2 mph - N/A   Partly Cloudy
5:00 PM 79 °F - 70 °F 66% 29.96 in - South 8.9 mph - -  
5:00 PM 78.8 °F - 69.8 °F 74% 29.95 in 6.2 mi SSE 9.2 mph - N/A   Partly Cloudy
5:30 PM 78.8 °F - 68.0 °F 69% 29.95 in 6.2 mi South 8.1 mph - N/A   Partly Cloudy
6:00 PM 78 °F - 69 °F 66% 29.96 in - South 6.7 mph - -  
6:00 PM 78.8 °F - 69.8 °F 74% 29.95 in 6.2 mi South 6.9 mph - N/A   Partly Cloudy
6:30 PM 78.8 °F - 69.8 °F 74% 29.95 in 6.2 mi South 5.8 mph - N/A   Partly Cloudy
7:00 PM 77 °F - 69 °F 71% 29.96 in 11 mi SSW 4.5 mph - -   Clear
7:00 PM 77.0 °F - 69.8 °F 78% 29.95 in - SSW 4.6 mph - N/A   Clear
7:30 PM 75.2 °F - 69.8 °F 83% 29.95 in - SSW 4.6 mph - N/A   Clear
8:00 PM 75 °F - 70 °F 79% 29.96 in - SW 4.5 mph - -  
8:00 PM 75.2 °F - 68.0 °F 78% 29.95 in - SSW 3.5 mph - N/A   Clear
8:30 PM 73.4 °F - 69.8 °F 88% 29.95 in - SSW 3.5 mph - N/A   Clear
9:00 PM 73.4 °F - 69.8 °F 88% 29.95 in - Calm Calm - N/A   Clear
9:30 PM 73.4 °F - 69.8 °F 88% 29.95 in - South 1.2 mph - N/A   Clear
10:00 PM 74 °F - 71 °F 88% 29.97 in 9 mi SSW 2.2 mph - -   Clear
10:00 PM 73.4 °F - 69.8 °F 88% 29.95 in - South 3.5 mph - N/A   Clear
10:30 PM 73.4 °F - 69.8 °F 88% 29.95 in - Variable 2.3 mph - N/A   Clear
11:00 PM 73.4 °F - 69.8 °F 88% 29.95 in - SSE 5.8 mph - N/A   Clear
11:30 PM 73.4 °F - 69.8 °F 88% 29.98 in - SE 5.8 mph - N/A   Clear